Погода в Троицком

Россия / Республика Северная Осетия — Алания     43°45′32″N   44°41′08″E
темп.,
°C
ветер,
м/с
пор.,
м/с
влажн.,
%
обл.,
%
осадки,
мм/ч
давл.,
гПа
погр.,
м
4 марта, чт
чт400:00+2зюз4782100 0.0 1026241
03:00+1зюз488695 0.0 1026223
06:000зюз33901 0.0 102868
09:00+3з35640 0.0 1027713
12:00+6зсз23470 0.0 10251066
15:00+8зюз23430 0.0 10241327
18:00+5ююв22510 0.0 102422
21:00+4в00570 0.0 102522
5 марта, пт
пт500:00+2ссв12630 0.0 102322
03:00+1юв11660 0.0 102322
06:00+1вюв11650 0.0 102222
09:00+5вюв23520 0.0 1021308
12:00+9вюв34380 0.0 1019799
15:00+11вюв33340 0.0 1018838
18:00+8вюв33460 0.0 101924
21:00+6юв23530 0.0 102123
6 марта, сб
сб600:00+4юв12540 0.0 102022
03:00+3ю12590 0.0 101922
06:00+3ююз11610 0.0 101922
09:00+8вюв11490 0.0 1018113
12:00+14юв24290 0.0 1016477
15:00+18вюв45190 0.0 10141153
18:00+12всв233235 0.0 101522
21:00+9св234268 0.0 101532
7 марта, вс
вс700:00+7с1155100 0.0 101523
03:00+5сз248389 0.0 1017107
06:00+1сз5991100 0.8 1020585
09:000сз4788100 2.2 1023436
12:00+4сз695993 1.1 10231431
15:00+4сз574463 1.1 10231157
18:00+1сз24560 0.0 1024130
21:00−1ссз11620 0.0 102521
8 марта, пн
пн800:00−1с11630 0.0 102421
03:00−1ссв11660 0.0 102422
06:00−2вюв116645 0.0 102322
09:00+1юв114934 0.0 1022488
12:00+4всв22410 0.0 10191210
15:00+5св22391 0.0 10181408
18:00+3св11482 0.0 101922
21:00+2св11512 0.0 102022